[[{"header":{"parameterUnit":"m.s-1","parameterCategory":2,"la1":30.2991,"la2":30.254,"lo1":-89.0895,"lo2":-89.0444,"dy":0.0017,"dx":0.0017,"nx":28,"ny":28,"refTime":"2023-11-02T03:00:00:Z","depth":"0","parameterNumber":2,"parameterNumberName":"U-component_of_CURRENTS"},"data":[0,0,0,0,0,0,0,0,0,0,0,0,0,0,0,0,0,0,0,0,0,0,0,0,0,0,0,0,0,0,0,0,0,0,0,0,0,0,0,0,0,0,0,0,0,0,0,0,0,0,0,0,0,0,0,0,0,0,-0.3345,-0.3345,0,-0.3305,-0.3305,-0.3305,-0.3263,-0.3262,-0.3261,-0.3261,-0.3173,-0.3172,-0.317,0,0,0,0,0,0,0,0,0,0,0,0,0,-0.3267,-0.327,-0.3345,-0.3345,-0.3344,-0.3305,-0.3305,-0.3304,-0.3263,-0.3262,-0.3261,-0.3261,-0.3174,-0.3172,-0.317,0,0,0,0,0,0,0,0,0,0,0,0,0,-0.3272,-0.327,-0.3345,-0.3318,-0.3316,-0.3306,-0.3305,-0.3304,-0.3263,-0.3262,-0.3261,-0.326,-0.3175,-0.3172,-0.317,-0.3172,0,0,-0.3161,-0.316,0,0,0,0,0,0,0,0,-0.3272,-0.3275,-0.3323,-0.332,-0.3317,-0.3288,-0.3245,-0.3258,-0.3263,-0.3283,-0.3261,-0.326,-0.3208,-0.3202,-0.3198,-0.3168,-0.3164,-0.3161,-0.316,-0.3159,-0.3158,0,0,0,0,0,0,0,-0.3272,-0.3276,-0.333,-0.3322,-0.3319,-0.3268,-0.3269,-0.3247,-0.3251,-0.3281,-0.3278,-0.3274,-0.3206,-0.3201,-0.3196,-0.3163,-0.3161,-0.3159,-0.3157,-0.3156,-0.3153,-0.3154,0,0,0,0,0,0,-0.3284,-0.3277,-0.3331,-0.3329,-0.3291,-0.327,-0.3271,-0.3298,-0.3252,-0.3244,-0.3274,-0.3272,-0.3206,-0.3199,-0.3192,-0.3195,-0.3159,-0.3156,-0.3155,-0.3151,-0.3153,-0.3155,0,0,0,0,0,0,-0.3283,-0.3291,-0.3333,-0.3299,-0.3301,-0.3274,-0.3304,-0.3298,-0.3285,-0.3247,-0.3238,-0.3266,-0.3205,-0.3196,-0.3181,-0.3191,-0.3155,-0.3153,-0.3149,-0.3152,-0.3154,-0.3199,0,0,0,0,0,0,-0.3282,-0.3292,-0.3314,-0.3301,-0.3303,-0.3337,-0.3304,-0.3298,-0.3284,-0.328,-0.3237,-0.3228,-0.3203,-0.3186,-0.3179,-0.3187,-0.315,-0.3148,-0.315,-0.3153,-0.3196,-0.3203,-0.3209,0,0,0,0,0,-0.328,-0.3309,-0.3317,-0.3322,-0.3337,-0.3338,-0.3335,-0.331,-0.3284,-0.3292,-0.3262,-0.3229,-0.3199,-0.3185,-0.3176,-0.3184,-0.3146,-0.315,-0.3153,-0.3193,-0.3201,-0.3208,0,0,0,0,0,0,-0.3282,-0.3307,-0.3315,-0.3351,-0.3352,-0.3331,-0.333,-0.3311,-0.3293,-0.3283,-0.3241,-0.3232,-0.323,-0.3205,-0.319,-0.3196,-0.317,-0.3172,-0.3203,-0.3211,-0.3217,-0.3214,-0.3148,0,0,0,0,0,-0.3299,-0.3323,-0.334,-0.3361,-0.3371,-0.3351,-0.3345,-0.3332,-0.3313,-0.3303,-0.3274,-0.325,-0.324,-0.3222,-0.3215,-0.3205,-0.3164,-0.3209,-0.3216,-0.3221,-0.3216,-0.3139,-0.3137,-0.3165,-0.3165,-0.3165,0,0,-0.3291,-0.3315,-0.3322,-0.3362,-0.3358,-0.3383,-0.3345,-0.3343,-0.3349,-0.3297,-0.3292,-0.3274,-0.3248,-0.3249,-0.3244,-0.3222,-0.3204,-0.3225,-0.3229,-0.3221,-0.3142,-0.3139,-0.3136,-0.3168,-0.3167,-0.3167,0,0,-0.3293,-0.333,-0.3353,-0.3374,-0.339,-0.339,-0.3393,-0.3385,-0.3373,-0.3375,-0.3343,-0.3316,-0.3309,-0.3278,-0.3264,-0.3297,-0.3249,-0.3313,-0.3324,-0.325,-0.3246,-0.3242,-0.3228,-0.3222,-0.3303,-0.3303,-0.3303,0,-0.3281,-0.3331,-0.3353,-0.3394,-0.3404,-0.34,-0.3422,-0.3425,-0.3407,-0.3378,-0.3385,-0.3333,-0.3317,-0.3279,-0.3314,-0.3305,-0.3283,-0.3292,-0.3254,-0.3249,-0.3243,-0.323,-0.3223,-0.3306,-0.3305,-0.3305,-0.3305,0,-0.3307,-0.3352,-0.3366,-0.3426,-0.3447,-0.3459,-0.3481,-0.3481,-0.3467,-0.3442,-0.3405,-0.3381,-0.3328,-0.3344,-0.335,-0.331,-0.3317,-0.3277,-0.3226,-0.3243,-0.323,-0.3221,-0.3309,-0.3308,-0.3308,-0.3307,0,0,-0.3245,-0.3361,-0.3362,-0.3386,-0.3461,-0.346,-0.3501,-0.3494,-0.3458,-0.3459,-0.3402,-0.3409,-0.3357,-0.3342,-0.3321,-0.3286,-0.3263,-0.3286,-0.3281,-0.326,-0.315,-0.3104,-0.3091,-0.3215,-0.3212,-0.3211,-0.317,0,-0.3244,-0.3321,-0.3381,-0.3419,-0.3452,-0.3484,-0.3498,-0.3492,-0.3482,-0.3434,-0.3391,-0.3343,-0.3366,-0.3331,-0.3301,-0.3273,-0.3238,-0.3281,-0.3149,-0.3146,-0.3089,-0.3076,-0.2954,-0.2901,-0.3161,-0.316,-0.3159,0,-0.3236,-0.3291,-0.335,-0.3394,-0.3404,-0.3427,-0.3414,-0.3424,-0.3389,-0.3367,-0.3318,-0.329,-0.3253,-0.326,-0.3192,-0.3224,-0.3197,-0.3179,-0.3174,-0.3101,-0.3081,-0.2919,-0.2875,-0.2851,-0.3145,-0.3146,-0.3147,0,-0.3157,-0.3244,-0.3281,-0.331,-0.338,-0.3379,-0.339,-0.3381,-0.3348,-0.3311,-0.3279,-0.3222,-0.3187,-0.314,-0.3143,-0.3157,-0.3077,-0.306,-0.2989,-0.2989,-0.284,-0.2828,-0.2733,-0.2982,-0.2982,-0.2982,-0.2982,0,-0.3127,-0.3138,-0.3239,-0.3261,-0.3223,-0.3308,-0.325,-0.3252,-0.3242,-0.318,-0.3214,-0.3163,-0.3158,-0.3127,-0.3116,-0.3039,-0.3032,-0.2987,-0.2954,-0.2861,-0.2852,-0.2788,-0.2825,-0.2981,-0.2981,-0.2981,-0.2981,0,-0.3023,-0.3115,-0.3128,-0.3197,-0.3194,-0.3159,-0.3157,-0.3107,-0.3143,-0.308,-0.3069,-0.3102,-0.3075,-0.3078,-0.3019,-0.2986,-0.2868,-0.2891,-0.2825,-0.2784,-0.2679,-0.2724,-0.2597,-0.2524,-0.2786,-0.2784,-0.2783,0,-0.297,-0.2988,-0.3035,-0.3009,-0.3033,-0.3003,-0.2962,-0.3014,-0.2989,-0.3026,-0.2983,-0.2996,-0.2964,-0.2906,-0.2852,-0.2794,-0.2792,-0.2651,-0.2628,-0.2647,-0.2673,-0.2696,-0.2645,-0.2478,-0.2474,-0.2471,-0.2469,0,-0.2843,-0.2872,-0.2877,-0.283,-0.2799,-0.2758,-0.2743,-0.2726,-0.2791,-0.2792,-0.2806,-0.2809,-0.2794,-0.2698,-0.2658,-0.26,-0.2579,-0.2584,-0.2578,-0.2403,-0.244,-0.2363,-0.2596,-0.2441,-0.2443,-0.2446,-0.2447,-0.2448,-0.2694,-0.2649,-0.266,-0.2583,-0.2556,-0.2512,-0.2438,-0.2481,-0.2457,-0.2459,-0.2577,-0.2565,-0.2565,-0.2488,-0.2443,-0.2316,-0.2377,-0.2236,-0.2291,-0.2313,-0.2224,-0.2438,-0.2257,-0.2259,-0.226,-0.2262,-0.2263,0,-0.2468,-0.245,-0.2399,-0.2328,-0.2237,-0.2295,-0.2261,-0.2195,-0.215,-0.2238,-0.2251,-0.2303,-0.2217,-0.2235,-0.2149,-0.2054,-0.1996,-0.2004,-0.1993,-0.1953,-0.2092,-0.2058,-0.1853,-0.1854,-0.1854,-0.1854,-0.1854,-0.1854,-0.2348,-0.2231,-0.2215,-0.2018,-0.1977,-0.1829,-0.179,-0.1757,-0.1787,-0.18,-0.1879,-0.1996,-0.2049,-0.2179,-0.205,-0.1946,-0.1898,-0.1826,-0.1868,-0.1977,-0.2003,-0.2028,-0.2,-0.1788,-0.1788,-0.1623,-0.1622,-0.1622]},{"header":{"parameterUnit":"m.s-1","parameterCategory":2,"la1":30.2991,"la2":30.254,"lo1":-89.0895,"lo2":-89.0444,"dy":0.0017,"dx":0.0017,"nx":28,"ny":28,"refTime":"2023-11-02T03:00:00:Z","depth":"0","parameterNumber":3,"parameterNumberName":"V-component_of_CURRENTS"},"data":[0,0,0,0,0,0,0,0,0,0,0,0,0,0,0,0,0,0,0,0,0,0,0,0,0,0,0,0,0,0,0,0,0,0,0,0,0,0,0,0,0,0,0,0,0,0,0,0,0,0,0,0,0,0,0,0,0,0,-0.0447,-0.0445,0,-0.0289,-0.0288,-0.0286,-0.0195,-0.0195,-0.0195,-0.0195,-0.0033,-0.0029,-0.0025,0,0,0,0,0,0,0,0,0,0,0,0,0,-0.0553,-0.0552,-0.0447,-0.0445,-0.0443,-0.029,-0.0288,-0.0285,-0.0196,-0.0195,-0.0195,-0.0194,-0.0034,-0.0029,-0.0024,0,0,0,0,0,0,0,0,0,0,0,0,0,-0.0463,-0.0552,-0.0448,-0.038,-0.0372,-0.029,-0.0287,-0.0285,-0.0196,-0.0195,-0.0195,-0.0194,-0.0035,-0.003,-0.0024,0.0004,0,0,-0.0005,-0.0003,0,0,0,0,0,0,0,0,-0.0468,-0.0459,-0.0392,-0.0385,-0.0376,-0.0262,-0.0265,-0.0188,-0.0196,-0.0263,-0.0195,-0.0194,-0.0109,-0.0097,-0.0068,0.0011,0.0018,-0.0005,-0.0001,0.0002,0.0003,0,0,0,0,0,0,0,-0.0475,-0.0464,-0.0385,-0.039,-0.038,-0.0317,-0.0305,-0.025,-0.0191,-0.0257,-0.025,-0.0233,-0.0105,-0.0074,-0.0064,0.0021,-0.0005,0.0,0.0004,0.0007,0.0156,0.0156,0,0,0,0,0,0,-0.0501,-0.0471,-0.039,-0.038,-0.0422,-0.0316,-0.0302,-0.0299,-0.0191,-0.0174,-0.0233,-0.0229,-0.0085,-0.0071,-0.0058,-0.0012,0.0001,0.0007,0.0011,0.0155,0.0156,0.0156,0,0,0,0,0,0,-0.0504,-0.0496,-0.0396,-0.0421,-0.0404,-0.0316,-0.0312,-0.0296,-0.0265,-0.0173,-0.0156,-0.0219,-0.0084,-0.0066,-0.0006,-0.0005,0.001,0.0015,0.0155,0.0156,0.0156,0.0076,0,0,0,0,0,0,-0.0508,-0.0498,-0.0499,-0.0424,-0.0404,-0.0356,-0.0312,-0.0293,-0.0256,-0.0249,-0.0156,-0.014,-0.0082,-0.0015,0.0,0.0003,0.002,0.0155,0.0155,0.0156,0.0078,0.0074,0.007,0,0,0,0,0,-0.0513,-0.0515,-0.0501,-0.049,-0.041,-0.0356,-0.034,-0.0274,-0.0256,-0.0245,-0.0179,-0.0143,0.0,-0.001,0.0008,0.0013,0.0154,0.0155,0.0156,0.008,0.0075,0.007,0,0,0,0,0,0,-0.0566,-0.0504,-0.0486,-0.0473,-0.0424,-0.0341,-0.0321,-0.0283,-0.0222,-0.0216,-0.0135,-0.0115,-0.0063,-0.0013,-0.0026,0.0059,0.0082,0.0087,0.0019,0.0014,0.001,-0.0007,0.0025,0,0,0,0,0,-0.0581,-0.0567,-0.0502,-0.0495,-0.0474,-0.0403,-0.0372,-0.0332,-0.0269,-0.0241,-0.0176,-0.0106,-0.0045,-0.0008,0.0051,0.0099,0.0143,0.0114,0.011,0.0106,0.0105,0.0169,0.017,0.0159,0.0159,0.0159,0,0,-0.0602,-0.0565,-0.0558,-0.0505,-0.0463,-0.0443,-0.0383,-0.0345,-0.0321,-0.0234,-0.0185,-0.0121,-0.0037,0.0017,0.0045,0.006,0.0131,0.0107,0.0103,0.0104,0.017,0.0171,0.0172,0.0159,0.0159,0.0159,0,0,-0.0644,-0.0607,-0.0613,-0.0571,-0.0513,-0.0472,-0.0469,-0.0392,-0.0349,-0.0295,-0.0227,-0.0162,-0.0072,-0.0005,0.0039,0.0048,0.0102,0.0062,0.0035,0.0097,0.0098,0.0099,0.0146,0.0152,0.0066,0.0066,0.0066,0,-0.0674,-0.0669,-0.0607,-0.0596,-0.0565,-0.0496,-0.0495,-0.0442,-0.0354,-0.0315,-0.0292,-0.0146,-0.008,-0.0001,0.0004,0.0038,0.0075,0.0043,0.0089,0.0092,0.0095,0.0143,0.0151,0.0062,0.0062,0.0063,0.0063,0,-0.0716,-0.0705,-0.0702,-0.0672,-0.0635,-0.0617,-0.0543,-0.0503,-0.045,-0.0388,-0.03,-0.0201,-0.0113,-0.0082,-0.0034,0.0024,0.0042,0.0069,0.0095,0.0091,0.0142,0.0152,0.0056,0.0058,0.0059,0.006,0,0,-0.0796,-0.0747,-0.0742,-0.0738,-0.0667,-0.0646,-0.0605,-0.0541,-0.0508,-0.0417,-0.0362,-0.0249,-0.019,-0.0137,-0.0063,-0.0003,0.0048,0.0034,0.0039,0.0068,0.0172,0.0226,0.0242,0.0077,0.0079,0.008,0.0194,0,-0.085,-0.086,-0.0807,-0.0813,-0.0813,-0.0723,-0.0687,-0.0612,-0.0537,-0.0465,-0.0346,-0.0272,-0.0211,-0.0168,-0.01,0.0015,0.0072,0.0014,0.0183,0.0188,0.0227,0.0255,0.029,0.0399,0.0204,0.0206,0.0207,0,-0.0906,-0.0901,-0.0922,-0.0875,-0.0864,-0.0856,-0.0778,-0.073,-0.0606,-0.054,-0.0442,-0.0347,-0.0233,-0.019,-0.0005,-0.0048,0.005,0.0135,0.0142,0.0229,0.0262,0.0377,0.0425,0.0592,0.0223,0.0222,0.022,0,-0.0998,-0.0975,-0.0999,-0.0981,-0.0923,-0.0908,-0.087,-0.076,-0.0707,-0.0589,-0.0542,-0.0394,-0.0314,-0.0173,0.0012,0.0001,0.021,0.022,0.036,0.0364,0.0448,0.0458,0.0671,0.034,0.034,0.0339,0.0339,0,-0.1073,-0.1086,-0.1048,-0.1061,-0.1064,-0.099,-0.0965,-0.0896,-0.0794,-0.0735,-0.0594,-0.0516,-0.0307,-0.0153,-0.0003,0.0218,0.0203,0.0365,0.0406,0.0421,0.0427,0.062,0.0685,0.0344,0.0343,0.0342,0.0341,0,-0.1172,-0.1149,-0.117,-0.113,-0.1113,-0.1115,-0.1036,-0.1004,-0.0908,-0.083,-0.0796,-0.0601,-0.0393,-0.0176,0.007,0.0207,0.052,0.0483,0.0481,0.052,0.0798,0.0855,0.1099,0.1203,0.0652,0.0654,0.0656,0,-0.1221,-0.1252,-0.1231,-0.1229,-0.1216,-0.1195,-0.1165,-0.1072,-0.103,-0.0873,-0.0839,-0.0628,-0.0451,-0.0066,0.0217,0.0503,0.0627,0.0691,0.0687,0.0836,0.093,0.0959,0.103,0.0762,0.0764,0.0766,0.0768,0,-0.1312,-0.131,-0.1317,-0.131,-0.1301,-0.1282,-0.124,-0.1225,-0.1104,-0.1025,-0.0874,-0.0724,-0.0337,0.0035,0.0411,0.0574,0.0825,0.0742,0.0912,0.1053,0.1087,0.1197,0.0648,0.0786,0.0784,0.0783,0.0782,0.0781,-0.136,-0.1376,-0.1372,-0.1362,-0.1356,-0.1345,-0.1327,-0.1267,-0.1195,-0.1042,-0.0905,-0.0647,-0.0114,0.044,0.0644,0.1061,0.1004,0.1168,0.1228,0.1246,0.1348,0.0833,0.1008,0.1007,0.1007,0.1007,0.1006,0,-0.1386,-0.1393,-0.1404,-0.1391,-0.1394,-0.1376,-0.1341,-0.1293,-0.1203,-0.1035,-0.0855,-0.0288,0.0246,0.0723,0.1328,0.1542,0.158,0.1629,0.1685,0.1738,0.1306,0.1313,0.1545,0.1545,0.1545,0.1545,0.1545,0.1544,-0.1393,-0.1402,-0.1399,-0.1402,-0.1401,-0.1378,-0.1356,-0.1271,-0.1135,-0.0819,-0.0512,-0.0271,0.042,0.1423,0.1971,0.2,0.2183,0.2139,0.225,0.1952,0.1913,0.1876,0.1901,0.2253,0.2253,0.266,0.2664,0.2668]}],[{"header":{"parameterUnit":"m.s-1","parameterCategory":2,"la1":30.2991,"la2":30.254,"lo1":-89.0895,"lo2":-89.0444,"dy":0.0017,"dx":0.0017,"nx":28,"ny":28,"refTime":"2023-11-02T03:00:00:Z","depth":"2","parameterNumber":2,"parameterNumberName":"U-component_of_CURRENTS"},"data":[0,0,0,0,0,0,0,0,0,0,0,0,0,0,0,0,0,0,0,0,0,0,0,0,0,0,0,0,0,0,0,0,0,0,0,0,0,0,0,0,0,0,0,0,0,0,0,0,0,0,0,0,0,0,0,0,0,0,-0.2766,-0.2765,0,-0.2716,-0.2716,-0.2716,-0.27,-0.27,-0.27,-0.27,-0.2696,-0.2697,-0.2697,0,0,0,0,0,0,0,0,0,0,0,0,0,-0.2718,-0.272,-0.2766,-0.2765,-0.2764,-0.2716,-0.2716,-0.2716,-0.27,-0.27,-0.27,-0.2699,-0.2696,-0.2697,-0.2697,0,0,0,0,0,0,0,0,0,0,0,0,0,-0.2716,-0.2721,-0.2767,-0.2746,-0.2743,-0.2716,-0.2716,-0.2716,-0.2701,-0.27,-0.27,-0.2699,-0.2696,-0.2697,-0.2697,-0.2708,0,0,-0.2698,-0.2698,0,0,0,0,0,0,0,0,-0.2717,-0.2719,-0.275,-0.2747,-0.2744,-0.2709,-0.2697,-0.2713,-0.2701,-0.2723,-0.27,-0.2699,-0.2701,-0.2701,-0.2701,-0.2708,-0.2707,-0.2698,-0.2698,-0.2698,-0.2698,0,0,0,0,0,0,0,-0.2717,-0.272,-0.2753,-0.2749,-0.2745,-0.2694,-0.2695,-0.27,-0.2721,-0.2721,-0.2718,-0.2704,-0.2701,-0.27,-0.27,-0.2707,-0.2698,-0.2698,-0.2698,-0.2698,-0.276,-0.2761,0,0,0,0,0,0,-0.2719,-0.2722,-0.2754,-0.275,-0.2722,-0.2695,-0.2697,-0.2726,-0.272,-0.2716,-0.2704,-0.2703,-0.27,-0.27,-0.27,-0.2746,-0.2698,-0.2698,-0.2699,-0.2758,-0.276,-0.2761,0,0,0,0,0,0,-0.2719,-0.2725,-0.2756,-0.2727,-0.2726,-0.2697,-0.2729,-0.2725,-0.2734,-0.2705,-0.2704,-0.2718,-0.27,-0.27,-0.2726,-0.2744,-0.2699,-0.2699,-0.2756,-0.2759,-0.2761,-0.2816,0,0,0,0,0,0,-0.2719,-0.2726,-0.2747,-0.2729,-0.2728,-0.2764,-0.2728,-0.2724,-0.2722,-0.2721,-0.2717,-0.2715,-0.2699,-0.2725,-0.2726,-0.2744,-0.2699,-0.2755,-0.2757,-0.276,-0.2813,-0.282,-0.2826,0,0,0,0,0,-0.2718,-0.2738,-0.2749,-0.2752,-0.276,-0.2765,-0.2762,-0.274,-0.2723,-0.2745,-0.2739,-0.2716,-0.2742,-0.2727,-0.2727,-0.2746,-0.2753,-0.2757,-0.276,-0.2809,-0.2819,-0.2826,0,0,0,0,0,0,-0.2709,-0.2737,-0.2749,-0.2774,-0.2784,-0.276,-0.276,-0.2752,-0.2762,-0.2758,-0.2738,-0.2738,-0.2767,-0.2754,-0.2738,-0.2773,-0.2743,-0.2746,-0.2781,-0.2789,-0.2796,-0.2781,-0.2699,0,0,0,0,0,-0.2724,-0.2756,-0.2771,-0.2788,-0.2801,-0.2789,-0.2784,-0.2779,-0.2777,-0.278,-0.278,-0.2776,-0.2779,-0.2783,-0.2788,-0.281,-0.2775,-0.2822,-0.2829,-0.2835,-0.2824,-0.2776,-0.2777,-0.2772,-0.2772,-0.2772,0,0,-0.272,-0.2735,-0.2753,-0.2788,-0.2791,-0.2816,-0.2788,-0.2794,-0.281,-0.2779,-0.281,-0.2807,-0.2792,-0.2817,-0.2828,-0.2809,-0.2827,-0.2839,-0.2844,-0.2829,-0.2779,-0.2779,-0.2779,-0.2774,-0.2774,-0.2774,0,0,-0.2715,-0.2756,-0.2784,-0.2809,-0.2824,-0.2828,-0.2839,-0.2848,-0.2856,-0.2888,-0.2862,-0.2864,-0.2889,-0.2867,-0.286,-0.2908,-0.2868,-0.2924,-0.2941,-0.2896,-0.2895,-0.2894,-0.2881,-0.2878,-0.2922,-0.2922,-0.2923,0,-0.2706,-0.2749,-0.2786,-0.2819,-0.2829,-0.2843,-0.2869,-0.2887,-0.29,-0.2893,-0.2911,-0.2905,-0.2904,-0.2888,-0.2916,-0.292,-0.2902,-0.2909,-0.2902,-0.29,-0.2897,-0.2884,-0.288,-0.2926,-0.2925,-0.2925,-0.2925,0,-0.2723,-0.2765,-0.2779,-0.2842,-0.2871,-0.2887,-0.2927,-0.2951,-0.2963,-0.2959,-0.2967,-0.2967,-0.2945,-0.2963,-0.2962,-0.2946,-0.2944,-0.2918,-0.2874,-0.29,-0.2886,-0.2881,-0.293,-0.2929,-0.2928,-0.2927,0,0,-0.2684,-0.2773,-0.2781,-0.2806,-0.2881,-0.2893,-0.2946,-0.2965,-0.296,-0.2996,-0.2981,-0.3003,-0.2981,-0.2972,-0.2963,-0.2944,-0.2937,-0.2939,-0.2935,-0.2916,-0.2865,-0.2811,-0.2799,-0.291,-0.2909,-0.2908,-0.2873,0,-0.268,-0.2732,-0.2786,-0.2832,-0.2866,-0.2912,-0.295,-0.2974,-0.2994,-0.2995,-0.2982,-0.2976,-0.2991,-0.2981,-0.2965,-0.2942,-0.2921,-0.295,-0.2851,-0.2849,-0.2786,-0.2789,-0.2585,-0.2531,-0.2867,-0.2866,-0.2866,0,-0.2678,-0.2714,-0.2765,-0.2819,-0.2837,-0.2874,-0.2908,-0.2935,-0.2951,-0.2963,-0.2953,-0.2951,-0.2938,-0.2945,-0.2901,-0.2924,-0.2899,-0.2884,-0.2881,-0.2798,-0.2782,-0.2554,-0.2507,-0.2856,-0.2856,-0.2857,-0.2858,0,-0.2613,-0.2688,-0.2717,-0.2746,-0.2826,-0.2847,-0.2873,-0.2914,-0.2917,-0.2929,-0.2932,-0.2914,-0.2907,-0.2873,-0.2871,-0.288,-0.2823,-0.2814,-0.2738,-0.2736,-0.2522,-0.2501,-0.2757,-0.2757,-0.2758,-0.2758,-0.2758,0,-0.2578,-0.2591,-0.269,-0.2707,-0.2717,-0.2801,-0.28,-0.2826,-0.2861,-0.2842,-0.2894,-0.288,-0.289,-0.2872,-0.2855,-0.2786,-0.2797,-0.2733,-0.2709,-0.2542,-0.2525,-0.2768,-0.277,-0.2756,-0.2757,-0.2757,-0.2757,0,-0.249,-0.256,-0.2587,-0.2674,-0.2691,-0.2696,-0.2744,-0.2733,-0.2799,-0.2784,-0.2789,-0.2846,-0.2827,-0.2835,-0.2788,-0.2754,-0.2697,-0.2665,-0.2495,-0.2451,-0.265,-0.2655,-0.2565,-0.2562,-0.256,-0.2558,-0.2557,0,-0.2439,-0.2457,-0.2537,-0.2538,-0.2573,-0.2596,-0.2596,-0.2674,-0.2675,-0.2744,-0.2723,-0.2751,-0.2726,-0.2678,-0.2617,-0.2555,-0.2632,-0.2338,-0.2303,-0.2637,-0.2623,-0.2632,-0.264,-0.2059,-0.2053,-0.2049,-0.2045,0,-0.2333,-0.2376,-0.2391,-0.2407,-0.242,-0.2419,-0.2443,-0.2452,-0.2533,-0.2552,-0.2572,-0.2572,-0.2554,-0.2406,-0.2361,-0.2295,-0.2335,-0.2246,-0.259,-0.2152,-0.2159,-0.2148,-0.2171,-0.2005,-0.2009,-0.2012,-0.2014,-0.2016,-0.2229,-0.221,-0.2242,-0.2231,-0.2244,-0.2232,-0.2185,-0.2238,-0.2235,-0.2238,-0.2344,-0.2283,-0.2292,-0.2112,-0.2018,-0.1947,-0.2101,-0.2001,-0.2014,-0.2032,-0.1992,-0.1996,-0.1806,-0.1809,-0.1811,-0.1813,-0.1815,0,-0.2067,-0.206,-0.2053,-0.204,-0.1989,-0.2055,-0.2052,-0.199,-0.1947,-0.1997,-0.1991,-0.1818,-0.1736,-0.1753,-0.1583,-0.1563,-0.1541,-0.1498,-0.146,-0.15,-0.1535,-0.147,-0.1145,-0.1144,-0.1142,-0.114,0,0,-0.198,-0.1909,-0.1908,-0.1784,-0.1773,-0.1662,-0.1633,-0.1585,-0.1584,-0.1517,-0.1492,-0.1627,-0.1693,-0.1419,-0.1359,-0.1222,-0.1346,-0.1163,-0.1696,-0.1689,-0.1722,-0.1818,-0.1762,0,0,0,0,0]},{"header":{"parameterUnit":"m.s-1","parameterCategory":2,"la1":30.2991,"la2":30.254,"lo1":-89.0895,"lo2":-89.0444,"dy":0.0017,"dx":0.0017,"nx":28,"ny":28,"refTime":"2023-11-02T03:00:00:Z","depth":"2","parameterNumber":3,"parameterNumberName":"V-component_of_CURRENTS"},"data":[0,0,0,0,0,0,0,0,0,0,0,0,0,0,0,0,0,0,0,0,0,0,0,0,0,0,0,0,0,0,0,0,0,0,0,0,0,0,0,0,0,0,0,0,0,0,0,0,0,0,0,0,0,0,0,0,0,0,-0.0341,-0.0339,0,-0.0217,-0.0215,-0.0214,-0.0137,-0.0137,-0.0136,-0.0136,0.0014,0.0018,0.0021,0,0,0,0,0,0,0,0,0,0,0,0,0,-0.041,-0.041,-0.0341,-0.0339,-0.0338,-0.0217,-0.0215,-0.0214,-0.0137,-0.0137,-0.0136,-0.0136,0.0013,0.0017,0.0022,0,0,0,0,0,0,0,0,0,0,0,0,0,-0.0343,-0.041,-0.0341,-0.0285,-0.0278,-0.0217,-0.0215,-0.0213,-0.0137,-0.0137,-0.0136,-0.0135,0.0012,0.0017,0.0022,0.0042,0,0,0.0039,0.0041,0,0,0,0,0,0,0,0,-0.0347,-0.0341,-0.0295,-0.0289,-0.0281,-0.0191,-0.0184,-0.0126,-0.0138,-0.0191,-0.0136,-0.0135,-0.0052,-0.0042,-0.0021,0.0049,0.0056,0.0039,0.0043,0.0045,0.0046,0,0,0,0,0,0,0,-0.0352,-0.0345,-0.0292,-0.0293,-0.0285,-0.0231,-0.0221,-0.0173,-0.0127,-0.0187,-0.0181,-0.0166,-0.0048,-0.0026,-0.0016,0.0058,0.0039,0.0044,0.0047,0.0049,0.0181,0.0181,0,0,0,0,0,0,-0.0373,-0.035,-0.0296,-0.0288,-0.0313,-0.023,-0.022,-0.0221,-0.0128,-0.0113,-0.0167,-0.0163,-0.0036,-0.0023,-0.0011,0.0032,0.0045,0.005,0.0053,0.0181,0.0181,0.0181,0,0,0,0,0,0,-0.0375,-0.037,-0.0301,-0.0315,-0.0302,-0.0231,-0.0232,-0.0219,-0.0196,-0.0113,-0.0098,-0.0158,-0.0035,-0.0018,0.0036,0.0038,0.0052,0.0057,0.018,0.0181,0.0181,0.011,0,0,0,0,0,0,-0.0378,-0.0372,-0.0375,-0.0317,-0.0302,-0.0272,-0.0232,-0.0217,-0.0188,-0.0182,-0.01,-0.0085,-0.0033,0.0028,0.0041,0.0046,0.0061,0.018,0.018,0.0181,0.0112,0.0108,0.0104,0,0,0,0,0,-0.0381,-0.0386,-0.0376,-0.0369,-0.0311,-0.0272,-0.026,-0.0206,-0.0189,-0.0183,-0.0123,-0.0088,0.0041,0.0032,0.0048,0.0054,0.018,0.018,0.0181,0.0114,0.0109,0.0104,0,0,0,0,0,0,-0.0418,-0.0377,-0.0365,-0.0359,-0.0324,-0.0259,-0.0245,-0.0215,-0.0163,-0.0157,-0.0083,-0.0064,-0.0018,0.0028,0.0017,0.0094,0.0116,0.0119,0.0059,0.0055,0.0051,0.0037,0.0066,0,0,0,0,0,-0.0431,-0.0428,-0.0381,-0.0379,-0.0365,-0.0311,-0.0287,-0.0255,-0.0203,-0.018,-0.0122,-0.0058,-0.0003,0.0032,0.0084,0.0128,0.0171,0.0143,0.0139,0.0135,0.0135,0.0201,0.0203,0.0183,0.0183,0.0183,0,0,-0.045,-0.0424,-0.0424,-0.0387,-0.0357,-0.0345,-0.0295,-0.0269,-0.0249,-0.0172,-0.0129,-0.0074,0.0003,0.0052,0.0078,0.0093,0.0162,0.0136,0.0132,0.0134,0.0202,0.0204,0.0205,0.0184,0.0183,0.0183,0,0,-0.0487,-0.0463,-0.0475,-0.0444,-0.0402,-0.037,-0.0369,-0.0311,-0.0275,-0.023,-0.0169,-0.011,-0.0031,0.0032,0.0073,0.008,0.0133,0.0092,0.0071,0.0134,0.0136,0.0139,0.0184,0.0191,0.0098,0.0098,0.0098,0,-0.0512,-0.0516,-0.0472,-0.0466,-0.0443,-0.0391,-0.0393,-0.0351,-0.028,-0.0246,-0.0228,-0.0098,-0.0037,0.0038,0.0042,0.0072,0.0107,0.0079,0.0128,0.0131,0.0135,0.0181,0.019,0.0094,0.0095,0.0095,0.0095,0,-0.0552,-0.0549,-0.0551,-0.0533,-0.0505,-0.0495,-0.0436,-0.0405,-0.0362,-0.031,-0.0232,-0.0144,-0.0064,-0.0036,0.0007,0.0066,0.0081,0.0106,0.0134,0.0132,0.0182,0.0192,0.0089,0.0091,0.0092,0.0093,0,0,-0.0624,-0.059,-0.0589,-0.0588,-0.0534,-0.052,-0.0487,-0.0435,-0.0407,-0.0331,-0.0281,-0.018,-0.013,-0.008,-0.0014,0.0048,0.0101,0.0081,0.0086,0.0116,0.0227,0.0263,0.0278,0.0131,0.0133,0.0134,0.0246,0,-0.0673,-0.0686,-0.0645,-0.0656,-0.066,-0.0586,-0.0558,-0.0497,-0.0433,-0.0371,-0.0263,-0.0198,-0.0146,-0.0107,-0.0039,0.0069,0.0126,0.0067,0.0234,0.0239,0.0263,0.0291,0.0253,0.0353,0.0256,0.0258,0.026,0,-0.0726,-0.0723,-0.0747,-0.0711,-0.0704,-0.0702,-0.0638,-0.0599,-0.0492,-0.0435,-0.0347,-0.0263,-0.0154,-0.0117,0.0061,0.0018,0.0111,0.0193,0.0199,0.0267,0.0295,0.0344,0.0375,0.0277,0.0276,0.0275,0.0273,0,-0.0803,-0.0791,-0.0815,-0.0801,-0.0757,-0.0748,-0.072,-0.0628,-0.0584,-0.0477,-0.0437,-0.0298,-0.0224,-0.0089,0.0081,0.0071,0.0272,0.0285,0.0404,0.0407,0.0427,0.0429,0.0404,0.0404,0.0404,0.0403,0.0403,0,-0.0866,-0.088,-0.0859,-0.0869,-0.0883,-0.0821,-0.0808,-0.075,-0.0663,-0.0614,-0.0484,-0.0414,-0.0214,-0.007,0.0071,0.0274,0.0269,0.0409,0.0447,0.0401,0.0399,0.0376,0.0372,0.0408,0.0407,0.0406,0.0405,0,-0.0948,-0.0932,-0.0958,-0.0935,-0.0926,-0.0937,-0.088,-0.0856,-0.0771,-0.0704,-0.0673,-0.0493,-0.0299,-0.0095,0.0142,0.0266,0.0452,0.052,0.0444,0.0472,0.0542,0.0532,0.0666,0.0668,0.067,0.0672,0.0673,0,-0.099,-0.1018,-0.1021,-0.103,-0.1027,-0.1021,-0.1005,-0.0925,-0.0889,-0.0746,-0.0716,-0.052,-0.0359,-0.0001,0.0252,0.0516,0.0511,0.0626,0.0613,0.0549,0.0573,0.056,0.0548,0.0605,0.0606,0.0606,0.0607,0,-0.1067,-0.1074,-0.1087,-0.1112,-0.1119,-0.1113,-0.1085,-0.1074,-0.0964,-0.0892,-0.0752,-0.0615,-0.0266,0.0039,0.0379,0.0518,0.0583,0.0649,0.0624,0.0542,0.0502,0.0521,0.051,0.0612,0.0612,0.0611,0.0611,0.0611,-0.1116,-0.1142,-0.1156,-0.1174,-0.1183,-0.1182,-0.1171,-0.1118,-0.1054,-0.0911,-0.0787,-0.0556,-0.0262,0.0229,0.0469,0.0679,0.0671,0.0723,0.0717,0.0712,0.0683,0.0648,0.0779,0.078,0.078,0.0781,0.0781,0,-0.1154,-0.117,-0.1201,-0.1217,-0.1232,-0.1222,-0.1194,-0.1147,-0.1063,-0.0911,-0.0746,-0.0421,-0.0077,0.0214,0.0565,0.0779,0.0745,0.0796,0.0717,0.071,0.0704,0.0671,0.0768,0.0768,0.0769,0.0769,0,0,-0.1171,-0.1201,-0.1209,-0.1237,-0.1249,-0.124,-0.122,-0.1134,-0.1008,-0.0836,-0.0665,-0.0427,-0.0065,0.0185,0.0448,0.0626,0.0608,0.0628,0.0615,0.0485,0.0477,0.0638,0.0578,0,0,0,0,0]}],[{"header":{"parameterUnit":"m.s-1","parameterCategory":2,"la1":30.2991,"la2":30.254,"lo1":-89.0895,"lo2":-89.0444,"dy":0.0017,"dx":0.0017,"nx":28,"ny":28,"refTime":"2023-11-02T03:00:00:Z","depth":"4","parameterNumber":2,"parameterNumberName":"U-component_of_CURRENTS"},"data":[0,0,0,0,0,0,0,0,0,0,0,0,0,0,0,0,0,0,0,0,0,0,0,0,0,0,0,0,0,0,0,0,0,0,0,0,0,0,0,0,0,0,0,0,0,0,0,0,0,0,0,0,0,0,0,0,0,0,-0.1414,-0.1416,0,-0.1554,-0.1555,-0.1557,-0.1569,-0.1568,-0.1567,-0.1566,-0.1664,-0.1668,-0.1671,0,0,0,0,0,0,0,0,0,0,0,0,0,-0.1292,-0.1293,-0.1414,-0.1416,-0.1418,-0.1554,-0.1555,-0.1557,-0.1569,-0.1568,-0.1567,-0.1565,-0.1663,-0.1667,-0.1672,0,0,0,0,0,0,0,0,0,0,0,0,0,-0.1375,-0.1293,-0.1414,-0.1444,-0.1448,-0.1553,-0.1555,-0.1557,-0.157,-0.1568,-0.1566,-0.1565,-0.1662,-0.1667,-0.1672,-0.174,0,0,-0.1689,-0.1691,0,0,0,0,0,0,0,0,-0.137,-0.1379,-0.1437,-0.1442,-0.1447,-0.1546,-0.1549,-0.1618,-0.157,-0.1519,-0.1566,-0.1564,-0.1625,-0.1633,-0.1658,-0.1744,-0.1749,-0.169,-0.1693,-0.1695,-0.1697,0,0,0,0,0,0,0,-0.1364,-0.1374,-0.1465,-0.144,-0.1446,-0.1497,-0.1505,-0.1562,-0.1576,-0.1523,-0.1526,-0.1548,-0.1626,-0.1653,-0.166,-0.175,-0.1689,-0.1694,-0.1698,-0.17,-0.1891,-0.1893,0,0,0,0,0,0,-0.135,-0.1368,-0.1461,-0.147,-0.1408,-0.15,-0.1509,-0.1513,-0.1576,-0.1586,-0.155,-0.1548,-0.1644,-0.1654,-0.1664,-0.1761,-0.1695,-0.17,-0.1704,-0.1889,-0.1891,-0.1893,0,0,0,0,0,0,-0.1347,-0.1356,-0.1455,-0.1427,-0.1443,-0.1503,-0.1508,-0.1516,-0.1567,-0.1597,-0.1605,-0.1594,-0.1643,-0.1656,-0.1729,-0.1764,-0.1703,-0.1708,-0.1887,-0.189,-0.1892,-0.1947,0,0,0,0,0,0,-0.1342,-0.1354,-0.1372,-0.1425,-0.1444,-0.1526,-0.151,-0.152,-0.1584,-0.1584,-0.1638,-0.1643,-0.1643,-0.1721,-0.1734,-0.1771,-0.1712,-0.1885,-0.1888,-0.1891,-0.1943,-0.1952,-0.1959,0,0,0,0,0,-0.1337,-0.1359,-0.1371,-0.1384,-0.1459,-0.1528,-0.1543,-0.1578,-0.1588,-0.1616,-0.1651,-0.1643,-0.175,-0.1728,-0.1743,-0.1782,-0.1883,-0.1887,-0.1891,-0.194,-0.195,-0.1959,0,0,0,0,0,0,-0.1324,-0.1365,-0.1378,-0.1414,-0.1473,-0.1531,-0.157,-0.1604,-0.1659,-0.1663,-0.1683,-0.1692,-0.1761,-0.1773,-0.1748,-0.1844,-0.181,-0.1818,-0.1842,-0.1852,-0.186,-0.1865,-0.1717,0,0,0,0,0,-0.1329,-0.1351,-0.1406,-0.1442,-0.1466,-0.1529,-0.157,-0.16,-0.1651,-0.1674,-0.1707,-0.1745,-0.179,-0.1822,-0.1854,-0.193,-0.1921,-0.1959,-0.1967,-0.1974,-0.1988,-0.2007,-0.2017,-0.1906,-0.1906,-0.1906,0,0,-0.1336,-0.1366,-0.138,-0.1442,-0.1485,-0.1538,-0.1548,-0.1617,-0.1668,-0.1679,-0.1751,-0.1779,-0.1815,-0.1878,-0.1911,-0.1896,-0.1997,-0.1979,-0.1984,-0.1995,-0.2012,-0.2022,-0.2032,-0.1909,-0.1909,-0.1908,0,0,-0.1365,-0.1385,-0.1415,-0.1461,-0.1537,-0.1572,-0.1599,-0.167,-0.1701,-0.1788,-0.1793,-0.1851,-0.1927,-0.1951,-0.1976,-0.2058,-0.2033,-0.2064,-0.2119,-0.2137,-0.2146,-0.2154,-0.2138,-0.2144,-0.2073,-0.2073,-0.2073,0,-0.1378,-0.1413,-0.1442,-0.149,-0.1533,-0.1587,-0.164,-0.1691,-0.178,-0.1818,-0.1813,-0.1936,-0.1961,-0.2046,-0.2065,-0.2076,-0.2068,-0.208,-0.2146,-0.2154,-0.2161,-0.2143,-0.2149,-0.2076,-0.2076,-0.2076,-0.2075,0,-0.1423,-0.1465,-0.149,-0.1552,-0.1606,-0.1661,-0.1725,-0.1778,-0.1826,-0.1884,-0.1979,-0.202,-0.2091,-0.2106,-0.2118,-0.219,-0.216,-0.2147,-0.2119,-0.2175,-0.2153,-0.2158,-0.2081,-0.208,-0.2079,-0.2078,0,0,-0.14,-0.1499,-0.1511,-0.1554,-0.1639,-0.1691,-0.1763,-0.185,-0.192,-0.1992,-0.2075,-0.2157,-0.2187,-0.2218,-0.2235,-0.226,-0.2296,-0.2233,-0.2233,-0.2211,-0.2314,-0.2153,-0.2143,-0.2293,-0.2295,-0.2297,-0.2271,0,-0.1425,-0.1522,-0.1561,-0.1654,-0.1702,-0.176,-0.1835,-0.1927,-0.1996,-0.2085,-0.2143,-0.2231,-0.2228,-0.2271,-0.2299,-0.2298,-0.2316,-0.2303,-0.2269,-0.2268,-0.2113,-0.2146,-0.2302,-0.2274,-0.2275,-0.2276,-0.2277,0,-0.1438,-0.1506,-0.16,-0.1711,-0.1738,-0.1808,-0.1923,-0.1999,-0.2123,-0.2181,-0.2267,-0.2311,-0.2379,-0.2358,-0.239,-0.238,-0.2361,-0.2348,-0.2346,-0.2184,-0.2118,-0.2212,-0.2286,-0.2285,-0.2284,-0.2284,-0.2283,0,-0.14,-0.1522,-0.1599,-0.1637,-0.1775,-0.1832,-0.191,-0.204,-0.211,-0.2242,-0.2298,-0.2388,-0.2427,-0.2432,-0.2408,-0.2406,-0.2411,-0.2397,-0.2235,-0.2222,-0.2349,-0.2341,-0.242,-0.242,-0.242,-0.242,-0.242,0,-0.1382,-0.1447,-0.16,-0.164,-0.1751,-0.1848,-0.1969,-0.2053,-0.218,-0.2252,-0.235,-0.2388,-0.2448,-0.2452,-0.2427,-0.233,-0.2422,-0.2246,-0.221,-0.237,-0.2365,-0.2351,-0.2343,-0.2419,-0.2419,-0.2419,-0.242,0,-0.1316,-0.1417,-0.1507,-0.1668,-0.1733,-0.181,-0.1983,-0.2058,-0.2188,-0.2268,-0.2305,-0.2398,-0.2384,-0.2409,-0.2403,-0.2326,-0.2269,-0.2215,-0.237,-0.2343,-0.2064,-0.206,-0.2028,-0.2022,-0.2017,-0.2013,-0.201,0,-0.1291,-0.1337,-0.1509,-0.1578,-0.1654,-0.1795,-0.1887,-0.2045,-0.21,-0.2235,-0.224,-0.2292,-0.2324,-0.2181,-0.2228,-0.2164,-0.2142,-0.2103,-0.2103,-0.2058,-0.2027,-0.2031,-0.2033,-0.2002,-0.2001,-0.2,-0.1998,0,-0.123,-0.1295,-0.1374,-0.1514,-0.1621,-0.1722,-0.1848,-0.1881,-0.2022,-0.2151,-0.2116,-0.2101,-0.2082,-0.2059,-0.2027,-0.1985,-0.2124,-0.2052,-0.2062,-0.2062,-0.2026,-0.2001,-0.2009,-0.1981,-0.1984,-0.1985,-0.1986,0,-0.118,-0.122,-0.1331,-0.1436,-0.1556,-0.1601,-0.169,-0.1743,-0.1815,-0.195,-0.1922,-0.1968,-0.2044,-0.1963,-0.1929,-0.1878,-0.1852,-0.1797,-0.182,-0.1839,-0.179,-0.1718,-0.1547,0,0,0,0,0,-0.1129,-0.1172,-0.1256,-0.1353,-0.1444,-0.1502,-0.1642,-0.1721,-0.1852,-0.1772,-0.1844,-0.1809,-0.1758,-0.1789,-0.1694,-0.1849,-0.1867,-0.1733,-0.1819,-0.1888,-0.1907,-0.1867,0,0,0,0,0,0,-0.1104,-0.1182,-0.1217,-0.124,-0.1273,-0.1356,-0.1425,-0.1514,-0.1486,-0.1616,-0.1595,-0.1687,-0.1665,-0.1765,-0.1647,-0.1656,-0.1672,-0.1773,-0.1768,-0.1877,-0.1894,-0.191,-0.1875,0,0,0,0,0]},{"header":{"parameterUnit":"m.s-1","parameterCategory":2,"la1":30.2991,"la2":30.254,"lo1":-89.0895,"lo2":-89.0444,"dy":0.0017,"dx":0.0017,"nx":28,"ny":28,"refTime":"2023-11-02T03:00:00:Z","depth":"4","parameterNumber":3,"parameterNumberName":"V-component_of_CURRENTS"},"data":[0,0,0,0,0,0,0,0,0,0,0,0,0,0,0,0,0,0,0,0,0,0,0,0,0,0,0,0,0,0,0,0,0,0,0,0,0,0,0,0,0,0,0,0,0,0,0,0,0,0,0,0,0,0,0,0,0,0,-0.0212,-0.0212,0,-0.0169,-0.0168,-0.0168,-0.0129,-0.0129,-0.0129,-0.0129,-0.0025,-0.0023,-0.0021,0,0,0,0,0,0,0,0,0,0,0,0,0,-0.0209,-0.0209,-0.0212,-0.0212,-0.0211,-0.0169,-0.0168,-0.0167,-0.013,-0.0129,-0.0129,-0.0129,-0.0026,-0.0023,-0.002,0,0,0,0,0,0,0,0,0,0,0,0,0,-0.0191,-0.0209,-0.0212,-0.0189,-0.0186,-0.0169,-0.0168,-0.0167,-0.013,-0.0129,-0.0129,-0.0128,-0.0027,-0.0024,-0.002,-0.0004,0,0,-0.0008,-0.0007,0,0,0,0,0,0,0,0,-0.0192,-0.019,-0.0193,-0.019,-0.0188,-0.0156,-0.0129,-0.011,-0.013,-0.0149,-0.0129,-0.0128,-0.0065,-0.0058,-0.0049,0.0,0.0005,-0.0008,-0.0006,-0.0004,-0.0003,0,0,0,0,0,0,0,-0.0193,-0.0192,-0.0193,-0.0192,-0.0189,-0.0162,-0.016,-0.0125,-0.0107,-0.0147,-0.0145,-0.0143,-0.0063,-0.0053,-0.0046,0.0006,-0.0008,-0.0005,-0.0003,-0.0001,0.0088,0.0088,0,0,0,0,0,0,-0.0206,-0.0194,-0.0194,-0.0192,-0.0191,-0.0163,-0.016,-0.0165,-0.0109,-0.0101,-0.0144,-0.0142,-0.0059,-0.0051,-0.0042,-0.0015,-0.0004,-0.0001,0.0001,0.0088,0.0088,0.0088,0,0,0,0,0,0,-0.0206,-0.0207,-0.0196,-0.0193,-0.019,-0.0164,-0.017,-0.0164,-0.0156,-0.0107,-0.0098,-0.0142,-0.0059,-0.0048,-0.0013,-0.001,0.0001,0.0004,0.0088,0.0088,0.0088,0.0037,0,0,0,0,0,0,-0.0206,-0.0207,-0.0212,-0.0194,-0.019,-0.0194,-0.017,-0.0164,-0.0156,-0.0153,-0.0102,-0.0092,-0.0058,-0.0019,-0.001,-0.0005,0.0007,0.0087,0.0088,0.0088,0.0039,0.0036,0.0033,0,0,0,0,0,-0.0206,-0.0216,-0.0212,-0.0212,-0.0199,-0.0195,-0.0191,-0.0169,-0.0157,-0.0159,-0.012,-0.0094,-0.0011,-0.0016,-0.0005,0.0001,0.0087,0.0088,0.0088,0.004,0.0036,0.0033,0,0,0,0,0,0,-0.0219,-0.0213,-0.0208,-0.0216,-0.0211,-0.0189,-0.0188,-0.0175,-0.0147,-0.0141,-0.0093,-0.008,-0.0052,-0.0018,-0.0025,0.0027,0.0043,0.0045,0.0003,-0.0,-0.0003,-0.0006,0.0011,0,0,0,0,0,-0.0225,-0.0232,-0.0222,-0.0231,-0.0229,-0.021,-0.0205,-0.0194,-0.0169,-0.0157,-0.0121,-0.0078,-0.0043,-0.0017,0.0015,0.0047,0.0088,0.0059,0.0056,0.0053,0.0059,0.0126,0.0129,0.0089,0.0089,0.0089,0,0,-0.0235,-0.0232,-0.0236,-0.0234,-0.0226,-0.0231,-0.0206,-0.0205,-0.0201,-0.0149,-0.0128,-0.0093,-0.0039,-0.0008,0.0009,0.0023,0.0083,0.0054,0.0051,0.0058,0.0126,0.013,0.0134,0.0089,0.0089,0.0089,0,0,-0.0262,-0.0254,-0.0271,-0.0264,-0.0259,-0.0249,-0.0253,-0.0235,-0.0217,-0.0197,-0.0157,-0.0115,-0.0068,-0.0021,0.0008,0.0012,0.0057,0.0015,0.001,0.0074,0.0078,0.0082,0.0123,0.0131,0.0024,0.0024,0.0023,0,-0.0275,-0.0292,-0.0275,-0.0284,-0.028,-0.0262,-0.0275,-0.0256,-0.0228,-0.0206,-0.0198,-0.0112,-0.0069,-0.0011,-0.0011,0.0007,0.0039,0.0016,0.007,0.0075,0.0081,0.0122,0.0131,0.0021,0.0021,0.0022,0.0022,0,-0.0311,-0.0321,-0.0329,-0.0335,-0.0328,-0.0337,-0.0312,-0.03,-0.0279,-0.0251,-0.02,-0.0139,-0.0083,-0.0064,-0.0035,0.0022,0.0029,0.0049,0.0077,0.0082,0.0124,0.0135,0.0018,0.0019,0.0019,0.002,0,0,-0.0345,-0.0356,-0.0357,-0.0368,-0.0353,-0.0357,-0.0342,-0.0322,-0.0307,-0.0264,-0.0228,-0.0158,-0.0122,-0.0086,-0.0038,0.0024,0.0083,0.0047,0.0052,0.0083,0.0207,0.018,0.019,0.0109,0.0111,0.0113,0.0216,0,-0.038,-0.0418,-0.0403,-0.043,-0.0445,-0.041,-0.0399,-0.0369,-0.0331,-0.0291,-0.021,-0.0165,-0.013,-0.0102,-0.0036,0.0052,0.0112,0.0052,0.0202,0.0207,0.018,0.0202,0.0119,0.0224,0.0227,0.0229,0.023,0,-0.0416,-0.0435,-0.0474,-0.0477,-0.0479,-0.0489,-0.046,-0.0445,-0.0374,-0.0338,-0.0269,-0.0208,-0.0113,-0.0086,0.0074,0.003,0.0112,0.0183,0.0189,0.0193,0.0201,0.0225,0.0251,0.0249,0.0248,0.0247,0.0245,0,-0.0454,-0.0479,-0.0517,-0.0517,-0.0519,-0.0522,-0.0519,-0.0464,-0.0445,-0.0366,-0.0337,-0.022,-0.016,-0.0038,0.0099,0.0091,0.0273,0.0284,0.0339,0.0337,0.0352,0.0347,0.0403,0.0403,0.0402,0.0402,0.0402,0,-0.0489,-0.0517,-0.0545,-0.0563,-0.0599,-0.0572,-0.0583,-0.0554,-0.0501,-0.0472,-0.0372,-0.0316,-0.0143,-0.0021,0.0098,0.0246,0.0276,0.0344,0.037,0.0325,0.0316,0.0359,0.0353,0.0406,0.0405,0.0404,0.0404,0,-0.0522,-0.0542,-0.0588,-0.061,-0.0624,-0.0647,-0.0651,-0.0646,-0.059,-0.0546,-0.0523,-0.0378,-0.0219,-0.0052,0.0159,0.0239,0.0389,0.0434,0.0361,0.0379,0.0409,0.0398,0.0508,0.0508,0.0508,0.0508,0.0508,0,-0.0543,-0.0575,-0.0633,-0.067,-0.0689,-0.072,-0.0737,-0.0702,-0.0682,-0.058,-0.0554,-0.0399,-0.0289,-0.0013,0.0153,0.0378,0.0407,0.0474,0.0456,0.0409,0.0424,0.0413,0.0403,0.0508,0.0508,0.0508,0.0508,0,-0.0578,-0.0605,-0.0643,-0.0724,-0.0768,-0.0799,-0.0813,-0.0803,-0.0736,-0.0697,-0.0558,-0.0403,-0.0226,-0.0015,0.0158,0.0318,0.0426,0.0475,0.0476,0.046,0.0411,0.0423,0.0413,0.0509,0.0509,0.0509,0.0509,0,-0.0603,-0.0645,-0.0706,-0.0766,-0.0826,-0.0846,-0.085,-0.0806,-0.0775,-0.0647,-0.0606,-0.0403,-0.0279,-0.0046,0.0114,0.0266,0.0303,0.0344,0.0353,0.0354,0.0273,0.0186,0.0245,0,0,0,0,0,-0.0622,-0.0675,-0.0742,-0.0804,-0.0855,-0.0879,-0.0882,-0.0864,-0.0802,-0.071,-0.0649,-0.0478,-0.0216,-0.0099,0.0051,0.0098,0.0311,0.0275,0.0358,0.051,0.051,0.0438,0,0,0,0,0,0,-0.064,-0.0714,-0.0745,-0.081,-0.0851,-0.0895,-0.0892,-0.0852,-0.078,-0.0701,-0.0558,-0.0465,-0.0212,-0.0306,0.0045,0.0092,0.016,0.0403,0.0406,0.051,0.051,0.051,0.0435,0,0,0,0,0]}]]